Regional Weather Roundup
Issued by NWS Goodland, KS

Home | Current Version | Previous Version | Graphics & Text | Print | Product List | Glossary On
Versions: 1 2 3 4 5 6 7 8 9 10 11 12 13 14 15 16 17 18 19 20 21 22 23 24 25 26 27 28 29 30 31 32 33 34 35 36 37 38 39 40 41 42 43 44 45 46 47 48 49 50
000
ASUS43 KGLD 301859
RWRGLD

GOODLAND FORECAST AREA HOURLY WEATHER ROUNDUP
NATIONAL WEATHER SERVICE GOODLAND KS
100 PM MDT THU JUL 30 2015

...OFFICIAL OBSERVATIONS...

CITY           SKY/WX    TMP DP  RH WIND       PRES   REMARKS
GOODLAND KS    SUNNY     85  60  42 S5        30.28F
HILL CITY KS   PTSUNNY   86  67  52 S9        30.23F
IMPERIAL NEB   MOSUNNY   88  59  37 S10       30.25F
MCCOOK NEB     SUNNY     88  61  40 SE10      30.23F
AKRON CO       SUNNY     86  56  35 VRB7G18   30.30F
BURLINGTON CO  SUNNY     84  61  45 S9        30.31F
LIMON CO       MOSUNNY   82  58  43 SE14G20   30.35F
$$

...UNOFFICIAL OBSERVATIONS...

CITY           SKY/WX    TMP DP  RH WIND       PRES   REMARKS
COLBY KS       SUNNY     84  64  51 E8        30.27F
NORTON KS      MOSUNNY   82  63  51 SE5       30.23
SHARON SPRINGS   N/A     84  68  58 SE8G15      N/A
KIT CARSON CO    N/A     85  62  45 MISG        N/A
YUMA CO          N/A     86  62  44 S6G14       N/A
$$


USA.gov is the U.S. government's official web portal to all federal, state and local government web resources and services.